Flag for Fiji Weather past 2 weeks in Lautoka, Fiji

Now
86 °F

Scattered clouds.


Feels Like: 88 °F
Forecast: 75 / 84 °F
Wind: 6 mph from North

Location: Nandi

Current Time: Sep 21, 2014 at 10:51:12 AM

Latest Report: Sep 21, 2014 at 10:00 AM


Visibility: N/A

Pressure: 29.95 "Hg

Humidity: 52%

Dew point: 66 °F

Location of LautokaLocation

Historic Weather in Lautoka — Graph

°F

Lautoka temperature yesterday

Maximum temperature yesterday: 84 °F (at 10:00 AM)
Minimum temperature yesterday: 68 °F (at 5:00 AM)
Average temperature yesterday: 77 °F

Past Weeks' High & Low Weather Summary

 TemperatureHumidityPressure
High90 °F (Sep 8, 2:00 PM)100% (Sep 20, 1:00 AM)30.04 "Hg (Sep 20, 1:00 AM)
Low64 °F (Sep 14, 6:00 AM)37% (Sep 14, 10:00 AM)29.83 "Hg (Sep 13, 3:00 PM)
Average77 °F74%29.94 "Hg
* Reported Sep 6 10:00 AM — Sep 21 10:00 AM, Lautoka, Weather by CustomWeather, © 2014

Note: Actual official high and low records may vary slightly from our data, if they occured in-between our weather recording intervals... More about our weather records

Advertising

Lautoka weather history for previous 24 hours

 ConditionsComfort  
Time TempWeatherWind HumidityBarometerVisibility
10:00 AM
Sep 21
86 °FScattered clouds.6 mph52%29.95 "HgN/A
9:00 AM82 °FPartly sunny.5 mph62%29.95 "HgN/A
8:00 AM79 °FScattered clouds.7 mph70%29.95 "HgN/A
7:00 AM72 °FPassing clouds.3 mph88%29.95 "HgN/A
6:00 AM70 °FPassing clouds.3 mph94%29.95 "HgN/A
1:00 AM73 °FPassing clouds.No wind83%29.95 "HgN/A
12:00 AM75 °FPartly cloudy.5 mph83%29.95 "HgN/A
11:00 PM
Sep 20
75 °FPartly cloudy.5 mph78%29.95 "HgN/A
10:00 PM77 °FPartly cloudy.3 mph79%29.95 "HgN/A
9:00 PM79 °FPartly cloudy.8 mph74%29.95 "HgN/A
8:00 PM77 °FPartly cloudy.8 mph74%29.95 "HgN/A
7:00 PM79 °FPartly cloudy.8 mph74%29.92 "HgN/A
6:00 PM81 °FBroken clouds.10 mph66%29.89 "HgN/A
5:00 PM82 °FScattered clouds.14 mph66%29.86 "HgN/A
4:00 PM81 °FPartly sunny.16 mph74%29.86 "HgN/A
3:00 PM82 °FScattered clouds.17 mph70%29.86 "HgN/A
2:00 PM82 °FPassing clouds.16 mph66%29.89 "HgN/A
1:00 PM84 °FPassing clouds.15 mph66%29.92 "HgN/A
12:00 PM84 °FPassing clouds.15 mph66%29.92 "HgN/A
11:00 AM84 °FPassing clouds.15 mph66%29.95 "HgN/A
10:00 AM84 °FPassing clouds.8 mph58%29.98 "HgN/A
Weather by CustomWeather, © 2014

See weather overviewHow to use our weather pages